Location: Cieszkowy
(50.3290°N, 20.5336°E)
Time: 23:13:31
(UTC+00:00)

SL-4 R/B - Pass Details

Date: 15 June 2024
Orbit: 411 x 597 km, 51.6° (Epoch: 18 July)

Event Time Altitude Azimuth Distance (km) Brightness Sun altitude
Rises 00:17:02 0° 282° (WNW) 2,716 5.4 -13.2°
Reaches altitude 10° 00:20:11 10° 256° (WSW) 1,858 4.4 -13.0°
Enters shadow 00:20:51 12° 247° (WSW) 1,749 4.2 -12.9°
